Location: Budapest
(47.4979°N, 19.0402°E)
Time: 04:49:04
(UTC+02:00)

Tiangong 1 - Pass Details

Date: 14 October 2017
Orbit: 293 x 320 km, 42.8° (Epoch: 20 October)

Event Time Altitude Azimuth Distance (km) Brightness Sun altitude
Rises 18:27:34 0° 263° (W) 2,051 7.7 -5.8°
Reaches altitude 10° 18:29:45 10° 248° (WSW) 1,214 5.1 -6.2°
Maximum altitude 18:32:01 24° 192° (SSW) 714 2.6 -6.6°
Drops below altitude 10° 18:34:16 10° 135° (SE) 1,199 3.2 -6.9°
Enters shadow 18:35:19 - 126° (SE) 1,585 3.7 -7.1°
